Regional Weather Roundup
Issued by NWS

Home | Current Version | Previous Version | Text Only | Print | Product List | Glossary Off
Versions: 1 2 3 4 5 6 7 8 9 10 11 12 13 14 15 16 17 18 19 20 21 22 23 24 25 26 27 28 29 30 31 32 33 34 35 36 37 38 39 40 41 42 43 44 45 46 47 48 49 50

000
ASUS43 KMPX 240501
RWRMN
WEATHER ROUNDUP FOR MINNESOTA
NATIONAL WEATHER SERVICE TWIN CITIES/CHANHASSEN MN
1100 PM CST THU FEB 23 2017


NOTE: "FAIR" INDICATES FEW OR NO CLOUDS BELOW 12,000 FEET WITH NO
SIGNIFICANT WEATHER AND/OR OBSTRUCTIONS TO VISIBILITY. N/A MEANS
CURRENT SKY AND/OR WEATHER CONDITIONS ARE NOT AVAILABLE.

MNZ060>063-068>070-240600-
   Twin Cities Metro

CITY           SKY/WX    TMP DP  RH WIND       PRES   REMARKS
TWIN CITIES    CLOUDY    30  22  72 NE15      29.91F WCI  19
ST PAUL        CLOUDY    30  23  75 NE14      29.94F WCI  19
CRYSTAL        CLOUDY    29  20  69 N12       29.91F WCI  19
BLAINE         CLOUDY    30  25  80 N14       29.92F WCI  20
LAKEVILLE      CLOUDY    28  25  86 N15       29.87F WCI  17
EDEN PRAIRIE   CLOUDY    30  22  72 N12G22    29.89F WCI  20
SOUTH ST PAUL  CLOUDY    31  23  73 N14       29.91F WCI  21
LAKE ELMO      CLOUDY    30  25  80 N9G17     29.92S WCI  22
$$
MNZ001>005-007-008-013>017-022>024-027-028-240600-
   Northwest Minnesota

CITY           SKY/WX    TMP DP  RH WIND       PRES   REMARKS
BEMIDJI        CLOUDY    15   9  75 N8        30.05R WCI   4
HALLOCK        CLEAR     16  10  79 N6        30.13S WCI   7
ROSEAU         CLEAR     10   3  72 N7        30.11R WCI   0
WARROAD        CLEAR     12   5  73 N9        30.10S WCI   0
THIEF RVR FALL CLOUDY    16  10  77 N10       30.11R WCI   4
CROOKSTON      CLOUDY    19  12  73 NE9       30.14R WCI   9
FOSSTON        CLEAR     16  10  79 N18       30.08R WCI  -1
DETROIT LAKES  CLOUDY    21  14  73 N10       30.06R WCI  10
MOORHEAD       CLOUDY    21  16  79 NE17G23   30.10R WCI   7
PARK RAPIDS    CLOUDY    20   9  62 NE13      30.02R WCI   7
MAHNOMEN       FAIR      18  11  73 N16       30.08R WCI   3
$$
MNZ006-009>011-018-025>026-240600-
   North Central Minnesota

CITY           SKY/WX    TMP DP  RH WIND       PRES   REMARKS
BAUDETTE       CLEAR     12   4  70 N12       30.05F WCI  -2
FLAG ISLAND    CLEAR     12   5  73 N12       30.09S WCI  -2
INTL FALLS     CLEAR     14   6  70 N8        30.02F WCI   3
WASKISH        CLEAR     14   9  79 N6        30.06R WCI   5
BIG FORK       CLEAR     16   9  73 CALM      30.02R
LONGVILLE      CLOUDY    18  10  73 N7        30.03R WCI   8
GRAND RAPIDS   CLOUDY    17  10  74 N8        30.03R WCI   7
CRANE LAKE     CLEAR     18   9  68 N6        30.03R WCI   9
ORR            CLEAR     16   7  67 CALM      29.98R
COOK           CLEAR     16  10  79 CALM      30.00R
WALKER         FAIR      17   9  70 N8        30.03S WCI   7
$$
MNZ012-019>021-037-240600-
   Northeast Minnesota

CITY           SKY/WX    TMP DP  RH WIND       PRES   REMARKS
DULUTH         CLOUDY    21  15  78 N9        29.96R WCI  11
ELY            CLEAR     18   9  68 CALM      29.97R
HIBBING        CLOUDY    17  11  77 N8        29.99R WCI   7
EVELETH        CLOUDY    20   8  58 N3        30.00R
DULUTH HARBOR  CLOUDY    28  19  69 N15       30.01S WCI  17
TWO HARBORS    CLOUDY    25  16  68 N3        29.97R
SILVER BAY     CLOUDY    23  14  68 CALM      29.96R
GRAND MARAIS     N/A     26  10  50 VRB6      29.99S WCI  19
G MARAIS ARPRT CLEAR     18   5  57 N14       29.90F WCI   4
$$
MNZ029>031-032-039>041-046>048-054>057-064-240600-
   West Central Minnesota

CITY           SKY/WX    TMP DP  RH WIND       PRES   REMARKS
FERGUS FALLS   CLOUDY    21  16  79 N16       30.07S WCI   7
WHEATON        CLOUDY    25  19  80 N14G21    30.05R WCI  13
MORRIS         CLOUDY    27  21  80 N16       29.98F WCI  14
ALEXANDRIA     CLOUDY    25  18  74 NE17G23   29.98R WCI  12
ELBOW LAKE     FAIR      24  19  81 N14       30.01R WCI  11
WADENA         CLOUDY    19  16  86 N10G17    30.01R WCI   8
GLENWOOD       CLOUDY    27  19  74 N20G25    29.97S WCI  13
APPLETON       CLOUDY    28  23  80 N17       29.96F WCI  16
BENSON         CLOUDY    30  19  64 NE13G20   29.97F WCI  20
ORTONVILLE     CLOUDY    27  19  74 N20       29.99F WCI  13
MADISON        CLOUDY    30  25  80 N16G23    29.95F WCI  19
WILLMAR        FAIR      28  21  74 NE20G30   29.93F WCI  15
$$
MNZ033>034-036-042>043-049>051-058-059-240600-
   Central Minnesota

CITY           SKY/WX    TMP DP  RH WIND       PRES   REMARKS
ST CLOUD       CLOUDY    27  19  72 N10       29.97R WCI  17
SAUK CENTRE    MOCLDY    26  17  69 N14       29.97S WCI  14
PAYNESVILLE    CLOUDY    27  20  75 NE16G23   29.96F WCI  15
AITKIN         CLOUDY    23  14  68 N12       30.00R WCI  12
PINE RIVER     CLOUDY    21  16  79 N8        30.05R WCI  12
BRAINERD       CLOUDY    22  15  75 N13       30.01R WCI  10
STAPLES        CLOUDY    21  16  79 N9G16     30.01R WCI  11
LONG PRAIRIE   FAIR      25  18  74 NW15      29.99R WCI  12
LITTLE FALLS   CLOUDY    27  18  69 N5        29.99S WCI  21
LITCHFIELD     CLOUDY    28  21  74 NE15G22   29.93F WCI  17
BUFFALO        CLOUDY    28  20  72 N15       29.95S WCI  16
MAPLE LAKE     CLOUDY    29  22  77 N14G20    29.97R WCI  18
HUTCHINSON     CLOUDY    29  23  78 N18G25    29.89F WCI  17
$$
MNZ037-044-045-052-053-240600-
   East Central Minnesota

CITY           SKY/WX    TMP DP  RH WIND       PRES   REMARKS
PRINCETON      CLOUDY    28  19  69 N12G18    29.97R WCI  18
MORA           CLOUDY    27  19  74 NE6       29.99R WCI  20
CAMBRIDGE      CLOUDY    28  19  69 N9G20     29.94S WCI  20
RUSH CITY      CLOUDY    27  19  74 N10G16    29.96S WCI  17
MOOSE LAKE     CLOUDY    25  18  74 N9        29.98R WCI  15
HINCKLEY       FAIR      28  21  74 N13       29.97R WCI  18
CLOQUET        CLOUDY    21  16  79 N8        29.98R WCI  12
MCGREGOR       CLOUDY    23  18  80 N9        30.02R WCI  13
$$
MNZ071>073-080-081-089-090-097-098-240600-
   Southwest Minnesota

CITY           SKY/WX    TMP DP  RH WIND       PRES   REMARKS
MONTEVIDEO     MOCLDY    28  23  80 NE17G24   29.95F WCI  16
GRANITE FALLS  CLOUDY    31  24  74 N16G23    29.93F WCI  20
CANBY          CLOUDY    29  25  84 N15G25    29.95S WCI  18
MARSHALL       PTCLDY    29  23  78 NE21G26   29.90S WCI  16
REDWOOD FALLS  CLOUDY    30  22  72 NE13G22   29.88F WCI  20
OLIVIA         CLOUDY    30  25  80 NE16G28   29.90F WCI  19
PIPESTONE      LGT SNOW  28  21  74 NE23G30   29.82S WCI  14
WINDOM         CLOUDY    27  27 100 N20G25    29.82S WCI  13
WORTHINGTON    LGT SNOW  26  25  96 N28       29.78F FOG     WCI  10
JACKSON        SNOW      28  27  93 NE28      29.79F VSB 1/2 WCI  13
TRACY          CLOUDY    30  25  83 NE21G28   29.87S WCI  17
SLAYTON        CLOUDY    26  24  94 N20G28    29.83F WCI  12
$$
MNZ065>067-074>077-082>085-091>093-240600-
   South Central Minnesota

CITY           SKY/WX    TMP DP  RH WIND       PRES   REMARKS
MANKATO        LGT SNOW  28  26  92 N17       29.86S FOG     WCI  16
NEW ULM        CLOUDY    28  25  86 NE15G21   29.86F WCI  17
ST JAMES       CLOUDY    28  27  93 N17G25    29.86R WCI  16
FAIRMONT       LGT SNOW  28  27  93 N18       29.81F VSB 3/4 WCI  16
GLENCOE        CLOUDY    29  26  86 N13G22    29.88F WCI  19
FARIBAULT      LGT SNOW  28  27  93 N14G20    29.85F VSB 3/4 WCI  17
OWATONNA       CLOUDY    28  27  93 N18G24    29.81F WCI  16
WASECA         CLOUDY    30  28  93 N17G24    29.84R WCI  18
ALBERT LEA     HVY SNOW  32  32 100 N21       29.77R VSB<1/4 WCI  20
$$
MNZ078>079-086>088-094>096-240600-
   Southeast Minnesota

CITY           SKY/WX    TMP DP  RH WIND       PRES   REMARKS
ROCHESTER      HVY SNOW  31  31 100 NE20G29   29.78F VSB 1/4 WCI  19
RED WING       LGT SNOW  30  27  86 NE8       29.87F VSB 1   WCI  23
STANTON        LGT SNOW  31  28  88 N15       29.84F VSB 3/4 WCI  20
DODGE CENTER   LGT SNOW  30  30 100 NE16G25   29.80F WCI  19
WINONA         FLURRIES  34  32  93 N9        29.79F WCI  26
AUSTIN         SNOW      32  30  93 NE14G23   29.76R VSB 1/2 WCI  22
PRESTON        TSTM      32  30  94 N16G25    29.75R VSB 1   WCI  21
$$
ABBREVIATIONS USED IN REMARKS
   TC - TEMPERATURES IN CELSIUS
  WCI - WIND CHILL INDEX
   HX - HEAT INDEX
  VSB - VISIBILITY
$$



USA.gov is the U.S. government's official web portal to all federal, state and local government web resources and services.